Regional Weather Roundup
Issued by NWS

Home | Current Version | Previous Version | Text Only | Print | Product List | Glossary On
Versions: 1 2 3 4 5 6 7 8 9 10 11 12 13 14 15 16 17 18 19 20 21 22 23 24 25 26 27 28 29 30 31 32 33 34 35 36 37 38 39 40 41 42 43 44 45 46 47 48 49 50
000
ASUS45 KPSR 191610
RWRAZ

ARIZONA HOURLY REGIONAL WEATHER ROUNDUP
NATIONAL WEATHER SERVICE PHOENIX AZ
900 AM MST SUN NOV 19 2017

NOTE: FAIR INDICATES FEW OR NO CLOUDS BELOW 12,000 FEET WITH NO
SIGNIFICANT WEATHER AND/OR OBSTRUCTIONS TO VISIBILITY.

AZZ001>003-036-191700-
NORTHWEST ARIZONA

CITY           SKY/WX    TMP DP  RH WIND       PRES   REMARKS
BULLHEAD CITY  SUNNY     57  18  21 N23G31    30.16R
KINGMAN        MOSUNNY   44   8  23 NE6       30.21R
$$

AZZ004>008-015-016-018-191700-
NORTH CENTRAL ARIZONA

CITY           SKY/WX    TMP DP  RH WIND       PRES   REMARKS
GRAND CANYON   MOSUNNY   41   3  20 E7        30.29S
WILLIAMS       SUNNY     43   9  24 SE9       30.28R
PRESCOTT       MOSUNNY   36   1  22 CALM      30.26R
FLAGSTAFF      MOSUNNY   32   4  30 N3        30.30R
PAYSON           N/A     52  12  20 SE7       30.26R
PAGE           MOSUNNY   35   8  32 CALM      30.36R
$$

AZZ009>014-017-191700-
NORTHEAST ARIZONA

CITY           SKY/WX    TMP DP  RH WIND       PRES   REMARKS
WINSLOW        PTSUNNY   29   1  30 E3        30.34F
SAINT JOHNS    SUNNY     30   7  37 NE3       30.31R
WINDOW ROCK    SUNNY     22   6  50 CALM      30.34S
SHOW LOW       MOSUNNY   32   1  27 CALM      30.33R
$$

AZZ540-542>544-546-548-191700-
GREATER PHOENIX AREA

CITY           SKY/WX    TMP DP  RH WIND       PRES   REMARKS
PHOENIX        MOSUNNY   61  19  19 SW3       30.08R
BUCKEYE        SUNNY     57  37  47 NW10      30.10R
LUKE AFB       SUNNY     60  26  27 N6        30.08R
DEER VALLEY    SUNNY     61  14  16 CALM      30.09R
SCOTTSDALE     SUNNY     61  28  28 W5        30.10R
MESA-FALCON    SUNNY     63  16  16 N12       30.09R
MESA-GATEWAY   MOSUNNY   57  21  24 VRB5      30.09R
CHANDLER       SUNNY     59  23  25 CALM      30.09R
$$

AZZ539-553-191700-
SOUTHWEST MARICOPA COUNTY AND PINAL COUNTY

CITY           SKY/WX    TMP DP  RH WIND       PRES   REMARKS
CASA GRANDE    NOT AVBL
$$

AZZ503-504-507>509-191700-
SOUTHEAST ARIZONA

CITY           SKY/WX    TMP DP  RH WIND       PRES   REMARKS
TUCSON         SUNNY     64  23  21 E8        30.10S
DAVIS-MONTHAN  SUNNY     63  24  23 SE8       30.09R
RYAN FIELD     SUNNY     64  27  24 MISG      30.09R
NOGALES        SUNNY     62  26  25 MISG      30.12R
SIERRA VISTA   SUNNY     51  22  32 NE5       30.20R
DOUGLAS        SUNNY     54  23  30 N7        30.19R
SAFFORD        SUNNY     54  19  25 SE10      30.25R
$$

AZZ532-191700-
SOUTHWEST ARIZONA

CITY           SKY/WX    TMP DP  RH WIND       PRES   REMARKS
YUMA           SUNNY     63  12  13 N12       30.09R
$$

CAZ041-043-047-048-061-525>527-560>570-191700-
SOUTHERN CALIFORNIA

CITY           SKY/WX    TMP DP  RH WIND       PRES   REMARKS
DOWNTOWN L.A.  MOSUNNY   60  23  24 NE3       30.06R
L.A. AIRPORT   PTSUNNY   60  23  24 CALM      30.06S
SAN DIEGO      MOSUNNY   58  41  53 CALM      30.08S
BURBANK        SUNNY     56  27  32 CALM      30.07R
ONTARIO        PTSUNNY   60  28  29 CALM      30.08S
RIVERSIDE      SUNNY     54  26  34 E5        30.10R
PALM SPRINGS   SUNNY     59  15  18 NW3       30.13R
EL CENTRO NAS  SUNNY     54  23  30 W6        30.12R
IMPERIAL       SUNNY     53  32  44 CALM      30.09R
BLYTHE         SUNNY     53  11  18 W3        30.14R
NEEDLES        SUNNY     58  15  18 N8        30.18R
$$

NVZ020-UTZ003-191700-
SOUTHERN NEVADA-UTAH

CITY           SKY/WX    TMP DP  RH WIND       PRES   REMARKS
LAS VEGAS      MOSUNNY   47  13  25 W3        30.23R
SALT LAKE CITY PTSUNNY   34  25  69 S5        30.29R WCI  30
$$

NMZ009-TXZ055-191700-
NEW MEXICO-WEST TEXAS

CITY           SKY/WX    TMP DP  RH WIND       PRES   REMARKS
ALBUQUERQUE    MOSUNNY   34  10  37 N7        30.34S WCI  28
EL PASO        MOSUNNY   48  16  27 N6        30.31R
$$


........................KEY........................
SKY/WX - SKY CONDITION/WEATHER
TMP    - TEMPERATURE IN FAHRENHEIT
DP     - DEW POINT IN FAHRENHEIT
RH     - RELATIVE HUMIDITY IN PERCENT
WIND   - DIRECTION AND SPEED IN MILES PER HOUR (MPH)
VRB    - VARIABLE WIND DIRECTION
PRES   - MEAN SEA LEVEL PRESSURE IN INCHES OF MERCURY
         F - FALLING PRESSURE   R - RISING PRESSURE
         S - STEADY PRESSURE
VSB    - VISIBILITY IN MILES
HX     - HEAT INDEX IN FAHRENHEIT
WCI    - WIND CHILL INDEX IN FAHRENHEIT
TC     - TEMPERATURE IN CELSIUS WHICH IS ALSO KNOWN AS
         TEMPERATURE IN CENTIGRADE
AFB    - AIR FORCE BASE
         LUKE AFB IS LUKE AIR FORCE BASE
         DAVIS-MONTHAN IS DAVIS-MONTHAN AIR FORCE BASE
NAS    - NAVAL AIR STATION
         EL CENTRO NAS IS EL CENTRO NAVAL AIR STATION
N/A    - NOT AVAILABLE




USA.gov is the U.S. government's official web portal to all federal, state and local government web resources and services.